Regional Weather Roundup
Issued by NWS

Home | Current Version | Previous Version | Text Only | Print | Product List | Glossary Off
Versions: 1 2 3 4 5 6 7 8 9 10 11 12 13 14 15 16 17 18 19 20 21 22 23 24 25 26 27 28 29 30 31 32 33 34 35 36 37 38 39 40 41 42 43 44 45 46 47 48 49 50

000
ASUS43 KMPX 292110
RWRMN
WEATHER ROUNDUP FOR MINNESOTA
NATIONAL WEATHER SERVICE TWIN CITIES/CHANHASSEN MN
400 PM CDT WED MAR 29 2017


NOTE: "FAIR" INDICATES FEW OR NO CLOUDS BELOW 12,000 FEET WITH NO
SIGNIFICANT WEATHER AND/OR OBSTRUCTIONS TO VISIBILITY. N/A MEANS
CURRENT SKY AND/OR WEATHER CONDITIONS ARE NOT AVAILABLE.

MNZ060>063-068>070-292200-
   Twin Cities Metro

CITY           SKY/WX    TMP DP  RH WIND       PRES   REMARKS
TWIN CITIES    CLOUDY    49  35  58 SE16      30.18F
ST PAUL        CLOUDY    49  37  63 S13       30.19F
CRYSTAL        CLOUDY    50  34  54 SE13      30.17F
BLAINE         CLOUDY    52  36  54 SE10      30.18F
LAKEVILLE      LGT RAIN  45  39  81 SE14      30.18S
EDEN PRAIRIE   CLOUDY    49  37  63 SE13      30.16F
SOUTH ST PAUL  CLOUDY    49  35  59 SE9       30.18S
LAKE ELMO      FAIR      50  36  57 SE6       30.19F
$$
MNZ001>005-007-008-013>017-022>024-027-028-292200-
   Northwest Minnesota

CITY           SKY/WX    TMP DP  RH WIND       PRES   REMARKS
BEMIDJI        MOSUNNY   55  32  41 E13       30.12F
HALLOCK        SUNNY     57  48  72 S10       30.05F
ROSEAU         SUNNY     61  43  51 S12       30.07F
WARROAD        SUNNY     61  43  51 S12       30.08F
THIEF RVR FALL SUNNY     60  35  39 SW15      30.08F
CROOKSTON      SUNNY     61  39  44 S15       30.07F
FOSSTON        SUNNY     61  30  31 S16       30.09F
DETROIT LAKES  MOSUNNY   57  32  38 S12G17    30.11F
MOORHEAD       SUNNY     59  39  47 S12G18    30.09F
PARK RAPIDS    PTSUNNY   56  31  38 S13       30.12F
MAHNOMEN       FAIR      57  35  42 S12       30.09F
$$
MNZ006-009>011-018-025>026-292200-
   North Central Minnesota

CITY           SKY/WX    TMP DP  RH WIND       PRES   REMARKS
BAUDETTE       SUNNY     60  33  36 SE14      30.09F
FLAG ISLAND    SUNNY     46  28  49 SE6       30.08F
INTL FALLS     CLOUDY    53  30  41 SE14      30.15F
WASKISH        MOSUNNY   59  34  38 S9        30.12F
BIG FORK       MOSUNNY   54  34  47 S9        30.17F
LONGVILLE      CLOUDY    52  34  50 SE9       30.16F
GRAND RAPIDS   CLOUDY    48  32  53 SE8       30.19F
CRANE LAKE     MOSUNNY   50  27  40 SE6       30.22F
ORR            CLOUDY    50  27  40 CALM      30.17F
COOK           MOSUNNY   48  30  49 E5        30.21F
WALKER         FAIR      50  32  49 E6        30.14F
$$
MNZ012-019>021-037-292200-
   Northeast Minnesota

CITY           SKY/WX    TMP DP  RH WIND       PRES   REMARKS
DULUTH         CLOUDY    38  31  76 E12       30.23F
ELY            CLOUDY    45  27  49 SE10      30.23F
HIBBING        CLOUDY    45  30  55 SE10      30.20F
EVELETH        CLOUDY    45  23  42 SE3       30.22F
DULUTH HARBOR  CLOUDY    36  34  93 NE21      30.28F
TWO HARBORS    CLOUDY    39  30  70 NE14      30.25F
SILVER BAY     CLOUDY    36  28  75 NE14G20   30.27F
GRAND MARAIS     N/A     35  29  78 E14G21    30.33F WCI  26
G MARAIS ARPRT CLOUDY    34  21  60 E9        30.29S WCI  26
$$
MNZ029>031-032-039>041-046>048-054>057-064-292200-
   West Central Minnesota

CITY           SKY/WX    TMP DP  RH WIND       PRES   REMARKS
FERGUS FALLS   PTSUNNY   57  36  44 S14       30.13F
WHEATON        CLOUDY    57  34  41 SE14G20   30.11F
MORRIS         PTSUNNY   55  36  47 SE15      30.12R
ALEXANDRIA     CLOUDY    54  27  35 SE14G21   30.14S
ELBOW LAKE     FAIR      57  33  40 SE16      30.12F
WADENA         MOSUNNY   55  32  41 S8        30.13F
GLENWOOD       CLOUDY    54  36  50 SE12      30.14F
APPLETON       CLOUDY    55  30  38 SE12      30.12R
BENSON         CLOUDY    55  28  35 S12       30.14F
ORTONVILLE     CLOUDY    57  30  35 SE16      30.10F
MADISON        CLOUDY    55  37  50 SE14G21   30.12R
WILLMAR        FAIR      52  37  58 SE18      30.15S
$$
MNZ033>034-036-042>043-049>051-058-059-292200-
   Central Minnesota

CITY           SKY/WX    TMP DP  RH WIND       PRES   REMARKS
ST CLOUD       CLOUDY    51  34  52 SE9       30.16F
SAUK CENTRE    FAIR      51  37  57 SE10      30.15S
PAYNESVILLE    CLOUDY    50  35  55 SE9       30.15F
AITKIN         CLOUDY    54  28  37 E3        30.16F
PINE RIVER     CLOUDY    52  36  54 SE6       30.18F
BRAINERD       PTSUNNY   49  33  54 E6        30.17F
STAPLES        CLOUDY    54  30  40 E7        30.14F
LONG PRAIRIE   FAIR      52  32  46 E10       30.15F
LITTLE FALLS   CLOUDY    50  32  50 SE7       30.16F
LITCHFIELD     CLOUDY    50  37  62 SE8G16    30.16S
BUFFALO        CLOUDY    50  35  56 SE9       30.18F
MAPLE LAKE     CLOUDY    51  38  61 SE6       30.17F
HUTCHINSON     LGT RAIN  49  40  70 SE13      30.17S
$$
MNZ037-044-045-052-053-292200-
   East Central Minnesota

CITY           SKY/WX    TMP DP  RH WIND       PRES   REMARKS
PRINCETON      CLOUDY    52  36  54 E5        30.17F
MORA           CLOUDY    50  34  53 E6        30.19F
CAMBRIDGE      CLOUDY    54  37  54 SE6       30.16F
RUSH CITY      CLOUDY    52  33  49 E3        30.18F
MOOSE LAKE     CLOUDY    39  32  75 NE9       30.20F
CLOQUET        CLOUDY    36  30  80 E10       30.23F
MCGREGOR       CLOUDY    46  34  61 E8        30.19F
$$
MNZ071>073-080-081-089-090-097-098-292200-
   Southwest Minnesota

CITY           SKY/WX    TMP DP  RH WIND       PRES   REMARKS
MONTEVIDEO     CLOUDY    52  37  58 S9        30.12F
GRANITE FALLS  CLOUDY    51  38  61 SE15      30.14F
CANBY          CLOUDY    52  37  56 E17       30.12S
MARSHALL       LGT RAIN  48  37  65 SE22G30   30.12S
REDWOOD FALLS  CLOUDY    49  36  61 SE20G28   30.13F
OLIVIA         CLOUDY    50  36  57 SE13      30.14S
PIPESTONE      DRIZZLE   46  34  61 SE21G28   30.06F
WINDOM         LGT RAIN  43  39  87 E16G23    30.10F
WORTHINGTON    LGT RAIN  41  37  87 E23G29    30.07F
JACKSON        LGT RAIN  39  39 100 E21G31    30.09F
TRACY          RAIN      47  40  75 SE21G26   30.11F
SLAYTON        LGT RAIN  42  39  88 E21G31    30.09F
$$
MNZ065>067-074>077-082>085-091>093-292200-
   South Central Minnesota

CITY           SKY/WX    TMP DP  RH WIND       PRES   REMARKS
MANKATO        LGT RAIN  44  40  85 E18       30.14F
NEW ULM        LGT RAIN  45  39  81 SE13      30.14F
ST JAMES       LGT RAIN  45  39  81 E15       30.13F
FAIRMONT       LGT RAIN  43  39  86 E18G28    30.10F
GLENCOE        DRIZZLE   48  42  79 E15       30.16S
FARIBAULT      LGT RAIN  45  39  81 E14G24    30.17S
OWATONNA       LGT RAIN  43  39  87 E16       30.16S
WASECA         LGT RAIN  43  37  81 E17G25    30.16F
ALBERT LEA     RAIN      43  36  75 E23G32    30.12F
$$
MNZ078>079-086>088-094>096-292200-
   Southeast Minnesota

CITY           SKY/WX    TMP DP  RH WIND       PRES   REMARKS
ROCHESTER      CLOUDY    42  39  89 NE16G25   30.15F
RED WING       CLOUDY    48  36  61 SE12      30.18F
STANTON        CLOUDY    47  38  72 SE10G17   30.17S
DODGE CENTER   LGT RAIN  43  39  87 E20G25    30.16F
WINONA         RAIN      43  39  87 E7        30.20F
AUSTIN         DRIZZLE   45  37  76 E12       30.14R
PRESTON        CLOUDY    43  34  72 E13G20    30.14F
$$
ABBREVIATIONS USED IN REMARKS
   TC - TEMPERATURES IN CELSIUS
  WCI - WIND CHILL INDEX
   HX - HEAT INDEX
  VSB - VISIBILITY
$$




USA.gov is the U.S. government's official web portal to all federal, state and local government web resources and services.